sat.trackr.live / text

‹ back to catalog

BRO-17

NORAD 66672 · 2025-276G

PAYLOAD ACTIVE UNKNOWN

§ Identity

Operator
Country
FR
Launch date
2025-11-28
Launch site
AFWTR
Launch vehicle
Mass (kg)
RCS (m²)

External: N2YO · Heavens-Above · Gunter

§ Orbital elements

Epoch: 2026-09-20T11:37:41.106720Z

Period
94.83 min
Inclination
97.4113°
Eccentricity
0.0007573
Mean motion
15.18473924 rev/d
Perigee alt
505.2 km
Apogee alt
515.7 km
Semi-major
6,888.6 km
B*
9.4608e-5
RAAN
334.7270°
Arg perigee
40.6309°
Mean anomaly
319.5489°
Rev number
4,485

§ Raw data

BRO-171 66672U 25276G   26263.48450355  .00001884  00000+0  94608-4 0  99932 66672  97.4113 334.7270 0007573  40.6309 319.5489 15.18473924 44858

JSON: /api/v1/satellites/66672 · /tle

For live sub-satellite position, see the globe view (requires WebGL).

§ Visibility from observer

Set your observer location to see the next 7 days of passes ≥ 10°. The values pass through the URL so the page stays shareable.

No JS? Fill the form by hand. The geolocation button needs JavaScript.